[[{"header":{"parameterUnit":"m.s-1","parameterCategory":1,"la1":30.2991,"la2":30.254,"lo1":-89.0895,"lo2":-89.0444,"dy":0.0017,"dx":0.0017,"nx":28,"ny":28,"refTime":"2023-08-20T21:00:00:Z","depth":0,"parameterNumber":2,"parameterNumberName":"U-component_of_WINDS"},"data":[0,0,0,0,0,0,0,0,0,0,0,0,0,0,0,0,0,0,0,0,0,0,0,0,0,0,0,0,0,0,0,0,0,0,0,0,0,0,0,0,0,0,0,0,0,0,0,0,0,0,0,0,0,0,0,0,0,0,-6.8714,-6.8715,0,-6.8746,-6.8746,-6.8746,-6.8631,-6.8628,-6.8624,-6.8621,-6.8653,-6.8657,-6.8661,0,0,0,0,0,0,0,0,0,0,0,0,0,-6.8557,-6.8561,-6.8714,-6.8715,-6.8715,-6.8745,-6.8746,-6.8746,-6.8632,-6.8627,-6.8623,-6.8619,-6.8652,-6.8657,-6.8662,0,0,0,0,0,0,0,0,0,0,0,0,0,-6.8611,-6.8562,-6.8714,-6.8662,-6.8657,-6.8745,-6.8746,-6.8746,-6.8633,-6.8627,-6.8622,-6.8617,-6.8651,-6.8656,-6.8662,-6.8803,0,0,-6.8681,-6.8684,0,0,0,0,0,0,0,0,-6.8608,-6.8617,-6.8669,-6.8665,-6.8661,-6.8679,-6.8702,-6.8765,-6.8634,-6.8642,-6.8621,-6.8615,-6.8666,-6.8671,-6.8688,-6.8805,-6.8806,-6.8682,-6.8685,-6.8688,-6.869,0,0,0,0,0,0,0,-6.8604,-6.8615,-6.8727,-6.867,-6.8665,-6.8637,-6.8639,-6.8714,-6.8683,-6.8641,-6.8633,-6.8638,-6.8663,-6.8682,-6.8688,-6.8806,-6.8681,-6.8687,-6.8691,-6.8693,-6.9042,-6.9047,0,0,0,0,0,0,-6.8607,-6.8612,-6.8726,-6.8728,-6.8621,-6.8644,-6.8646,-6.8678,-6.8681,-6.8677,-6.8642,-6.8632,-6.8674,-6.8681,-6.8688,-6.8854,-6.8688,-6.8694,-6.8697,-6.9036,-6.9043,-6.9049,0,0,0,0,0,0,-6.8605,-6.8619,-6.8724,-6.8668,-6.8679,-6.8652,-6.8689,-6.8682,-6.8701,-6.8682,-6.8676,-6.8668,-6.8671,-6.868,-6.8776,-6.8854,-6.8696,-6.8702,-6.903,-6.9038,-6.9046,-6.9186,0,0,0,0,0,0,-6.86,-6.8618,-6.8671,-6.867,-6.8683,-6.8811,-6.8694,-6.8686,-6.8712,-6.8699,-6.8705,-6.8701,-6.8667,-6.8767,-6.8782,-6.8859,-6.8707,-6.9023,-6.9034,-6.9044,-6.9175,-6.9198,-6.9219,0,0,0,0,0,-6.8595,-6.8709,-6.8674,-6.8688,-6.8748,-6.8816,-6.8823,-6.8782,-6.8718,-6.8771,-6.876,-6.87,-6.8843,-6.8778,-6.8793,-6.8874,-6.9018,-6.9031,-6.9043,-6.9165,-6.9194,-6.9218,0,0,0,0,0,0,-6.8719,-6.8708,-6.8669,-6.8786,-6.8803,-6.8796,-6.8861,-6.8814,-6.885,-6.8836,-6.8784,-6.8787,-6.8892,-6.8892,-6.882,-6.9011,-6.8919,-6.8936,-6.9007,-6.9034,-6.9056,-6.9054,-6.8712,0,0,0,0,0,-6.876,-6.8816,-6.8803,-6.8907,-6.8918,-6.8889,-6.8917,-6.8884,-6.89,-6.8906,-6.8901,-6.8919,-6.8968,-6.9001,-6.9045,-6.9174,-6.9175,-6.9238,-6.926,-6.9278,-6.9293,-6.9363,-6.9391,-6.9091,-6.9091,-6.909,0,0,-6.8845,-6.8846,-6.8884,-6.8932,-6.8941,-6.9001,-6.8895,-6.8963,-6.9007,-6.8916,-6.9007,-6.9005,-6.9021,-6.9135,-6.9185,-6.9138,-6.9376,-6.9294,-6.9309,-6.9313,-6.9378,-6.9407,-6.9432,-6.9099,-6.9098,-6.9096,0,0,-6.9031,-6.9037,-6.9124,-6.9137,-6.9152,-6.9132,-6.9154,-6.9155,-6.915,-6.924,-6.9174,-6.9226,-6.9311,-6.9326,-6.9345,-6.9539,-6.9486,-6.9555,-6.967,-6.9739,-6.9763,-6.9783,-6.9853,-6.9879,-6.9569,-6.957,-6.957,0,-6.9134,-6.9221,-6.9176,-6.9248,-6.9272,-6.9193,-6.9283,-6.9297,-6.9326,-6.9345,-6.9292,-6.9398,-6.9404,-6.9521,-6.9568,-6.9586,-6.9609,-6.9553,-6.9763,-6.9783,-6.9802,-6.9868,-6.9894,-6.9578,-6.9577,-6.9576,-6.9575,0,-6.9348,-6.941,-6.9479,-6.951,-6.9541,-6.9622,-6.959,-6.9627,-6.9593,-6.9579,-6.9673,-6.9677,-6.9721,-6.9746,-6.9712,-6.9859,-6.983,-6.9772,-6.9678,-6.9839,-6.9901,-6.9926,-6.959,-6.9587,-6.9584,-6.9582,0,0,-6.9611,-6.9617,-6.9644,-6.9657,-6.967,-6.9717,-6.9795,-6.9838,-6.9872,-6.9895,-6.996,-7.0035,-6.9981,-7.0002,-6.997,-7.0031,-7.0185,-6.9964,-6.9964,-7.0006,-7.0348,-7.0392,-7.0422,-7.0151,-7.0155,-7.0159,-7.0347,0,-6.9793,-6.9926,-6.9888,-7.0021,-7.0078,-7.0006,-7.0074,-7.009,-7.008,-7.0127,-7.0116,-7.017,-7.0095,-7.0107,-7.0164,-7.0155,-7.0254,-7.0141,-7.0211,-7.0214,-7.0209,-7.0454,-7.05,-7.0678,-7.0371,-7.0375,-7.0378,0,-7.0023,-7.0057,-7.0196,-7.0201,-7.0223,-7.0285,-7.0322,-7.0368,-7.0385,-7.0374,-7.04,-7.0355,-7.0433,-7.034,-7.0447,-7.0371,-7.0398,-7.0398,-7.0404,-7.0409,-7.0305,-7.0466,-7.0733,-7.076,-7.0415,-7.0412,-7.0409,0,-7.0202,-7.0282,-7.0375,-7.0389,-7.0397,-7.0443,-7.0448,-7.046,-7.0489,-7.0522,-7.0541,-7.0583,-7.0606,-7.064,-7.0609,-7.0544,-7.0721,-7.0625,-7.0715,-7.0716,-7.0754,-7.0752,-7.103,-7.0772,-7.0772,-7.0772,-7.0771,0,-7.0409,-7.0497,-7.0456,-7.0513,-7.0611,-7.0567,-7.0665,-7.0662,-7.0674,-7.073,-7.0671,-7.0725,-7.0681,-7.0732,-7.0709,-7.0802,-7.0812,-7.0806,-7.0799,-7.0811,-7.0812,-7.0828,-7.0815,-7.0778,-7.0777,-7.0776,-7.0774,0,-7.0624,-7.06,-7.0698,-7.0698,-7.07,-7.0772,-7.0772,-7.0826,-7.0812,-7.0885,-7.0899,-7.0878,-7.0935,-7.0908,-7.0968,-7.0952,-7.1072,-7.1048,-7.1066,-7.106,-7.1151,-7.1143,-7.1448,-7.1486,-7.1204,-7.1207,-7.1209,0,-7.0758,-7.0824,-7.0832,-7.0866,-7.0876,-7.0931,-7.096,-7.0921,-7.0955,-7.098,-7.1032,-7.1084,-7.1123,-7.1218,-7.1209,-7.1255,-7.1231,-7.1335,-7.1238,-7.1249,-7.1234,-7.123,-7.1237,-7.1355,-7.1358,-7.1361,-7.1363,0,-7.0999,-7.0984,-7.1029,-7.1071,-7.1108,-7.1139,-7.1164,-7.1196,-7.1157,-7.1198,-7.1256,-7.1287,-7.1349,-7.1402,-7.1442,-7.1448,-7.1401,-7.1394,-7.1417,-7.143,-7.1438,-7.1436,-7.112,-7.1387,-7.1384,-7.1383,-7.1381,-7.138,-7.1177,-7.1233,-7.1248,-7.13,-7.1316,-7.1342,-7.1393,-7.1387,-7.1434,-7.1481,-7.1455,-7.1524,-7.1541,-7.159,-7.1603,-7.1657,-7.1616,-7.1649,-7.1657,-7.1666,-7.1678,-7.1431,-7.1664,-7.1663,-7.1663,-7.1662,-7.1661,0,-7.1415,-7.1421,-7.147,-7.1508,-7.155,-7.1502,-7.1528,-7.1567,-7.1627,-7.1647,-7.1688,-7.1756,-7.1807,-7.1803,-7.185,-7.1894,-7.1873,-7.1908,-7.1904,-7.1907,-7.1712,-7.1688,-7.1924,-7.1924,-7.1924,-7.1924,-7.1924,-7.1924,-7.1543,-7.1636,-7.1623,-7.1724,-7.1729,-7.1795,-7.1815,-7.1839,-7.1855,-7.1933,-7.1976,-7.1973,-7.1983,-7.2032,-7.2078,-7.2075,-7.2095,-7.2139,-7.2128,-7.1946,-7.192,-7.1895,-7.1872,-7.2143,-7.2144,-7.2318,-7.2319,-7.2321]},{"header":{"parameterUnit":"m.s-1","parameterCategory":1,"la1":30.2991,"la2":30.254,"lo1":-89.0895,"lo2":-89.0444,"dy":0.0017,"dx":0.0017,"nx":28,"ny":28,"refTime":"2023-08-20T21:00:00:Z","depth":0,"parameterNumber":3,"parameterNumberName":"V-component_of_WINDS"},"data":[0,0,0,0,0,0,0,0,0,0,0,0,0,0,0,0,0,0,0,0,0,0,0,0,0,0,0,0,0,0,0,0,0,0,0,0,0,0,0,0,0,0,0,0,0,0,0,0,0,0,0,0,0,0,0,0,0,0,-0.3047,-0.3047,0,-0.2985,-0.2984,-0.2983,-0.2911,-0.291,-0.2909,-0.2908,-0.2845,-0.2845,-0.2844,0,0,0,0,0,0,0,0,0,0,0,0,0,-0.3104,-0.3103,-0.3047,-0.3046,-0.3046,-0.2985,-0.2984,-0.2983,-0.2911,-0.291,-0.2908,-0.2907,-0.2846,-0.2845,-0.2844,0,0,0,0,0,0,0,0,0,0,0,0,0,-0.3064,-0.3103,-0.3047,-0.3002,-0.2998,-0.2985,-0.2984,-0.2983,-0.2911,-0.291,-0.2908,-0.2907,-0.2846,-0.2845,-0.2844,-0.2871,0,0,-0.2841,-0.2841,0,0,0,0,0,0,0,0,-0.3067,-0.3062,-0.301,-0.3005,-0.3,-0.2954,-0.2981,-0.2945,-0.2912,-0.2944,-0.2908,-0.2906,-0.2883,-0.2879,-0.2871,-0.2868,-0.2865,-0.2841,-0.284,-0.284,-0.284,0,0,0,0,0,0,0,-0.3069,-0.3065,-0.3023,-0.3009,-0.3003,-0.2985,-0.2978,-0.2974,-0.2924,-0.2941,-0.2936,-0.2929,-0.288,-0.2872,-0.2869,-0.2864,-0.2841,-0.284,-0.284,-0.2839,-0.2878,-0.288,0,0,0,0,0,0,-0.3079,-0.3067,-0.3024,-0.3021,-0.303,-0.2985,-0.2977,-0.297,-0.2923,-0.2915,-0.2931,-0.2926,-0.2874,-0.287,-0.2866,-0.2893,-0.284,-0.2839,-0.2839,-0.2877,-0.2879,-0.2881,0,0,0,0,0,0,-0.308,-0.3076,-0.3027,-0.3042,-0.3035,-0.2986,-0.2979,-0.297,-0.2962,-0.2915,-0.2906,-0.2932,-0.2873,-0.2868,-0.287,-0.289,-0.2839,-0.2838,-0.2875,-0.2877,-0.288,-0.2949,0,0,0,0,0,0,-0.3082,-0.3077,-0.3087,-0.3043,-0.3034,-0.3032,-0.2981,-0.297,-0.296,-0.2954,-0.2914,-0.2906,-0.2871,-0.2872,-0.2869,-0.2888,-0.2837,-0.2873,-0.2876,-0.2879,-0.2945,-0.2954,-0.2961,0,0,0,0,0,-0.3085,-0.311,-0.3088,-0.3083,-0.3046,-0.3033,-0.3028,-0.2987,-0.2962,-0.2972,-0.2941,-0.2907,-0.2888,-0.2872,-0.2869,-0.2888,-0.2871,-0.2875,-0.2879,-0.2941,-0.2952,-0.2961,0,0,0,0,0,0,-0.3158,-0.3103,-0.3078,-0.309,-0.3067,-0.3021,-0.3032,-0.3,-0.2984,-0.2979,-0.2929,-0.2921,-0.2928,-0.2908,-0.2891,-0.291,-0.2875,-0.2878,-0.2924,-0.2933,-0.2941,-0.2946,-0.2836,0,0,0,0,0,-0.3175,-0.317,-0.3122,-0.3137,-0.3126,-0.3081,-0.3074,-0.3045,-0.3019,-0.3009,-0.2979,-0.2955,-0.2944,-0.2937,-0.2924,-0.2941,-0.2931,-0.2953,-0.2961,-0.2968,-0.2971,-0.2977,-0.2985,-0.2893,-0.2892,-0.2892,0,0,-0.3212,-0.3181,-0.3181,-0.3151,-0.3129,-0.3124,-0.3074,-0.3071,-0.3066,-0.3008,-0.3008,-0.2985,-0.2955,-0.2965,-0.2967,-0.2948,-0.2994,-0.2972,-0.2978,-0.2978,-0.2981,-0.299,-0.2998,-0.2895,-0.2895,-0.2894,0,0,-0.3275,-0.3252,-0.3261,-0.3239,-0.3207,-0.3176,-0.3179,-0.3137,-0.3119,-0.3118,-0.3074,-0.3068,-0.305,-0.3029,-0.3017,-0.307,-0.3037,-0.3067,-0.311,-0.3116,-0.3124,-0.313,-0.3148,-0.3155,-0.3071,-0.3071,-0.3071,0,-0.3324,-0.3315,-0.3269,-0.3268,-0.3256,-0.3202,-0.321,-0.3192,-0.3158,-0.315,-0.3129,-0.3103,-0.308,-0.3083,-0.3095,-0.3087,-0.3088,-0.3072,-0.3126,-0.3132,-0.3137,-0.3154,-0.3161,-0.3075,-0.3074,-0.3074,-0.3073,0,-0.3376,-0.337,-0.3381,-0.3348,-0.3337,-0.3341,-0.3296,-0.329,-0.326,-0.3232,-0.323,-0.3199,-0.3178,-0.3177,-0.3149,-0.3175,-0.3164,-0.3136,-0.3099,-0.3151,-0.3165,-0.3171,-0.308,-0.3079,-0.3078,-0.3077,0,0,-0.3486,-0.3425,-0.343,-0.3414,-0.3373,-0.3367,-0.3368,-0.3346,-0.3342,-0.3319,-0.3318,-0.3303,-0.3275,-0.3261,-0.323,-0.3235,-0.3278,-0.3205,-0.3204,-0.3219,-0.3303,-0.3325,-0.3333,-0.3255,-0.3256,-0.3257,-0.3305,0,-0.3541,-0.3539,-0.3497,-0.3507,-0.35,-0.3447,-0.3448,-0.3422,-0.3395,-0.3385,-0.3355,-0.3345,-0.3309,-0.33,-0.3303,-0.3272,-0.3294,-0.3268,-0.3253,-0.3254,-0.3262,-0.3341,-0.3364,-0.3411,-0.3311,-0.3312,-0.3313,0,-0.3606,-0.3586,-0.3595,-0.3552,-0.3547,-0.3548,-0.3524,-0.3515,-0.3485,-0.3465,-0.3448,-0.3412,-0.3409,-0.3374,-0.3368,-0.3352,-0.3343,-0.3326,-0.3327,-0.3324,-0.3286,-0.334,-0.3425,-0.3432,-0.3321,-0.3321,-0.332,0,-0.3684,-0.3659,-0.366,-0.3648,-0.3598,-0.36,-0.3579,-0.3547,-0.3536,-0.3515,-0.3507,-0.3486,-0.3475,-0.3459,-0.3418,-0.3397,-0.3417,-0.3379,-0.34,-0.3401,-0.3407,-0.3407,-0.3492,-0.3402,-0.3402,-0.3402,-0.3402,0,-0.375,-0.3758,-0.3694,-0.3695,-0.3701,-0.3653,-0.366,-0.3634,-0.3605,-0.36,-0.3553,-0.3549,-0.3495,-0.3485,-0.3453,-0.3453,-0.3448,-0.3431,-0.3422,-0.3435,-0.3437,-0.3429,-0.3424,-0.3404,-0.3403,-0.3403,-0.3403,0,-0.3839,-0.3797,-0.3795,-0.3747,-0.3735,-0.3741,-0.37,-0.3699,-0.3668,-0.3661,-0.3657,-0.3609,-0.3594,-0.3551,-0.3526,-0.3504,-0.3512,-0.3497,-0.3523,-0.3517,-0.354,-0.3538,-0.3622,-0.363,-0.3536,-0.3537,-0.3538,0,-0.3884,-0.3888,-0.384,-0.3832,-0.3813,-0.3802,-0.379,-0.3742,-0.3732,-0.3696,-0.3699,-0.368,-0.3662,-0.364,-0.3603,-0.3583,-0.3565,-0.3596,-0.3562,-0.3574,-0.3565,-0.3565,-0.3564,-0.3604,-0.3605,-0.3606,-0.3607,0,-0.3968,-0.3946,-0.3931,-0.3908,-0.3894,-0.3874,-0.3851,-0.3847,-0.3793,-0.3783,-0.3767,-0.3753,-0.3726,-0.3707,-0.3681,-0.3659,-0.3624,-0.3618,-0.3621,-0.3634,-0.3649,-0.364,-0.3542,-0.3616,-0.3615,-0.3615,-0.3614,-0.3614,-0.4035,-0.4036,-0.4001,-0.3985,-0.3962,-0.3941,-0.3937,-0.3905,-0.389,-0.3864,-0.3836,-0.3822,-0.379,-0.375,-0.3731,-0.3719,-0.37,-0.3706,-0.3707,-0.3709,-0.3715,-0.3651,-0.3714,-0.3714,-0.3713,-0.3713,-0.3713,0,-0.4116,-0.4091,-0.4076,-0.4045,-0.4032,-0.3999,-0.3971,-0.3962,-0.395,-0.3923,-0.3906,-0.3886,-0.3867,-0.3827,-0.3805,-0.3803,-0.3786,-0.3798,-0.3798,-0.3793,-0.3733,-0.3732,-0.3812,-0.3812,-0.3812,-0.3812,-0.3812,-0.3812,-0.4157,-0.4155,-0.4129,-0.4115,-0.409,-0.4076,-0.4062,-0.4042,-0.402,-0.4,-0.3983,-0.3957,-0.3924,-0.3898,-0.3879,-0.3868,-0.3861,-0.3879,-0.3863,-0.3807,-0.3798,-0.3789,-0.3787,-0.3878,-0.3878,-0.3924,-0.3924,-0.3925]}]]